• In Portugal
  • List of Countries
  • For 7 days
  • Water Temperature
  • Satellite Maps
  • Weather Map
  • Weather Widgets
  • user-avatar
    Login

    Hourly Weather Manama

    Today, 22 November, Wednesday

    Time Temperature Precipitation Wind Pressure Humidity
    00:00 +28°C° 0 mm 5 mps 758 mmHg 45%
    01:00 +28°C° 0 mm 5 mps 758 mmHg 45%
    02:00 +28°C° 0 mm 5 mps 758 mmHg 45%
    03:00 +28°C° 0 mm 5 mps 758 mmHg 45%
    04:00 +27°C° 0 mm 6 mps 758 mmHg 44%
    05:00 +27°C° 0 mm 6 mps 758 mmHg 43%
    06:00 +27°C° 0 mm 6 mps 758 mmHg 42%
    07:00 +28°C° 0 mm 6 mps 759 mmHg 39%
    08:00 +29°C° 0 mm 6 mps 759 mmHg 37%
    09:00 +29°C° 0 mm 6 mps 759 mmHg 34%
    10:00 +30°C° 0 mm 6 mps 759 mmHg 31%
    11:00 +32°C° 0 mm 5 mps 759 mmHg 29%
    12:00 +33°C° 0 mm 5 mps 758 mmHg 26%
    13:00 +33°C° 0 mm 4 mps 758 mmHg 26%
    14:00 +33°C° 0 mm 4 mps 758 mmHg 25%
    15:00 +34°C° 0 mm 4 mps 757 mmHg 24%
    16:00 +33°C° 0 mm 4 mps 757 mmHg 28%
    17:00 +32°C° 0 mm 4 mps 758 mmHg 31%
    18:00 +30°C° 0 mm 3 mps 758 mmHg 34%
    19:00 +30°C° 0 mm 4 mps 758 mmHg 35%
    20:00 +30°C° 0 mm 4 mps 758 mmHg 36%
    21:00 +30°C° 0 mm 5 mps 758 mmHg 37%
    22:00 +29°C° 0 mm 5 mps 758 mmHg 40%
    23:00 +29°C° 0 mm 6 mps 758 mmHg 42%

    Tomorrow, 23 November, Thursday

    Time Temperature Precipitation Wind Pressure Humidity
    00:00 +29°C° 0 mm 6 mps 758 mmHg 45%
    01:00 +28°C° 0 mm 5 mps 758 mmHg 45%
    02:00 +28°C° 0 mm 5 mps 758 mmHg 44%
    03:00 +27°C° 0 mm 4 mps 758 mmHg 44%
    04:00 +27°C° 0 mm 3 mps 758 mmHg 45%
    05:00 +27°C° 0 mm 3 mps 758 mmHg 46%
    06:00 +26°C° 0 mm 3 mps 759 mmHg 47%
    07:00 +27°C° 0 mm 4 mps 759 mmHg 49%
    08:00 +28°C° 0 mm 5 mps 760 mmHg 51%
    09:00 +28°C° 0 mm 6 mps 760 mmHg 53%
    10:00 +28°C° 0 mm 6 mps 760 mmHg 52%
    11:00 +29°C° 0 mm 6 mps 760 mmHg 51%
    12:00 +29°C° 0 mm 6 mps 760 mmHg 50%
    13:00 +28°C° 0.9 mm 6 mps 760 mmHg 53%
    14:00 +27°C° 0.9 mm 5 mps 760 mmHg 57%
    15:00 +26°C° 0.9 mm 4 mps 760 mmHg 60%
    16:00 +25°C° 0.5 mm 5 mps 760 mmHg 62%
    17:00 +25°C° 0.5 mm 5 mps 760 mmHg 63%
    18:00 +25°C° 0.5 mm 5 mps 761 mmHg 64%
    19:00 +25°C° 0.3 mm 4 mps 761 mmHg 64%
    20:00 +23°C° 0.3 mm 4 mps 761 mmHg 63%
    21:00 +23°C° 0.3 mm 4 mps 762 mmHg 63%
    22:00 +24°C° 0 mm 3 mps 761 mmHg 63%
    23:00 +25°C° 0 mm 3 mps 761 mmHg 62%

    Day after tomorrow, 24 November, Friday

    Time Temperature Precipitation Wind Pressure Humidity
    00:00 +25°C° 0 mm 3 mps 761 mmHg 61%
    01:00 +25°C° 0 mm 3 mps 761 mmHg 62%
    02:00 +25°C° 0 mm 2 mps 761 mmHg 62%
    03:00 +25°C° 0 mm 2 mps 761 mmHg 62%
    04:00 +25°C° 0 mm 3 mps 761 mmHg 61%
    05:00 +25°C° 0 mm 3 mps 761 mmHg 60%
    06:00 +25°C° 0 mm 4 mps 762 mmHg 59%
    07:00 +26°C° 0 mm 4 mps 762 mmHg 57%
    08:00 +26°C° 0 mm 4 mps 763 mmHg 56%
    09:00 +26°C° 0 mm 5 mps 763 mmHg 55%
    10:00 +26°C° 0.4 mm 5 mps 763 mmHg 55%
    11:00 +26°C° 0.4 mm 5 mps 763 mmHg 54%
    12:00 +27°C° 0.4 mm 6 mps 763 mmHg 54%
    13:00 +26°C° 0.2 mm 7 mps 763 mmHg 55%
    14:00 +26°C° 0.2 mm 7 mps 763 mmHg 56%
    15:00 +26°C° 0.2 mm 8 mps 763 mmHg 57%
    16:00 +24°C° 0 mm 8 mps 763 mmHg 55%
    17:00 +24°C° 0 mm 8 mps 763 mmHg 54%
    18:00 +24°C° 0 mm 8 mps 764 mmHg 52%
    19:00 +24°C° 0 mm 8 mps 764 mmHg 52%
    20:00 +24°C° 0 mm 8 mps 765 mmHg 52%
    21:00 +24°C° 0 mm 8 mps 765 mmHg 52%
    22:00 +24°C° 0 mm 8 mps 765 mmHg 52%
    23:00 +24°C° 0 mm 9 mps 765 mmHg 52%

    25 November, Saturday

    Time Temperature Precipitation Wind Pressure Humidity
    00:00 +24°C° 0 mm 9 mps 765 mmHg 52%
    01:00 +23°C° 0 mm 9 mps 764 mmHg 51%
    02:00 +23°C° 0 mm 9 mps 764 mmHg 51%
    03:00 +23°C° 0 mm 9 mps 764 mmHg 51%
    04:00 +23°C° 0 mm 9 mps 765 mmHg 50%
    05:00 +23°C° 0 mm 9 mps 765 mmHg 50%
    06:00 +23°C° 0 mm 9 mps 765 mmHg 49%
    07:00 +24°C° 0 mm 9 mps 766 mmHg 47%
    08:00 +24°C° 0 mm 9 mps 766 mmHg 44%
    09:00 +26°C° 0 mm 9 mps 767 mmHg 42%
    10:00 +26°C° 0 mm 9 mps 766 mmHg 41%
    11:00 +26°C° 0 mm 9 mps 766 mmHg 39%
    12:00 +27°C° 0 mm 9 mps 765 mmHg 38%
    13:00 +26°C° 0 mm 9 mps 765 mmHg 39%
    14:00 +26°C° 0 mm 9 mps 765 mmHg 40%
    15:00 +26°C° 0 mm 9 mps 764 mmHg 40%
    16:00 +26°C° 0 mm 9 mps 765 mmHg 42%
    17:00 +24°C° 0 mm 9 mps 765 mmHg 44%
    18:00 +24°C° 0 mm 9 mps 765 mmHg 46%
    19:00 +24°C° 0 mm 8 mps 765 mmHg 47%
    20:00 +23°C° 0 mm 8 mps 766 mmHg 48%
    21:00 +23°C° 0 mm 8 mps 766 mmHg 49%
    22:00 +23°C° 0 mm 8 mps 766 mmHg 49%
    23:00 +23°C° 0 mm 8 mps 765 mmHg 49%

    26 November, Sunday

    Time Temperature Precipitation Wind Pressure Humidity
    00:00 +23°C° 0 mm 8 mps 765 mmHg 49%
    01:00 +23°C° 0 mm 8 mps 765 mmHg 49%
    02:00 +22°C° 0 mm 8 mps 765 mmHg 49%
    03:00 +22°C° 0 mm 8 mps 765 mmHg 49%
    04:00 +22°C° 0 mm 8 mps 765 mmHg 49%
    05:00 +22°C° 0 mm 8 mps 765 mmHg 49%
    06:00 +22°C° 0 mm 8 mps 765 mmHg 50%
    07:00 +23°C° 0 mm 7 mps 766 mmHg 48%
    08:00 +24°C° 0 mm 7 mps 766 mmHg 46%
    09:00 +24°C° 0 mm 7 mps 766 mmHg 44%
    10:00 +26°C° 0 mm 7 mps 766 mmHg 43%
    11:00 +26°C° 0 mm 7 mps 765 mmHg 41%
    12:00 +27°C° 0 mm 7 mps 765 mmHg 40%
    13:00 +27°C° 0 mm 7 mps 764 mmHg 40%
    14:00 +27°C° 0 mm 7 mps 764 mmHg 40%
    15:00 +27°C° 0 mm 7 mps 764 mmHg 41%
    16:00 +27°C° 0 mm 7 mps 764 mmHg 44%
    17:00 +26°C° 0 mm 7 mps 764 mmHg 46%
    18:00 +26°C° 0 mm 7 mps 764 mmHg 49%
    19:00 +26°C° 0 mm 6 mps 764 mmHg 50%
    20:00 +24°C° 0 mm 6 mps 765 mmHg 50%
    21:00 +24°C° 0 mm 6 mps 765 mmHg 51%
    22:00 +25°C° 0 mm 5 mps 764 mmHg 51%
    23:00 +25°C° 0 mm 5 mps 764 mmHg 51%

    27 November, Monday

    Time Temperature Precipitation Wind Pressure Humidity
    00:00 +25°C° 0 mm 5 mps 764 mmHg 51%
    01:00 +25°C° 0 mm 5 mps 764 mmHg 51%
    02:00 +25°C° 0 mm 5 mps 763 mmHg 51%
    03:00 +23°C° 0 mm 5 mps 763 mmHg 51%
    04:00 +23°C° 0 mm 5 mps 764 mmHg 52%
    05:00 +23°C° 0 mm 4 mps 764 mmHg 52%
    06:00 +23°C° 0 mm 4 mps 764 mmHg 53%
    07:00 +25°C° 0 mm 4 mps 764 mmHg 51%
    08:00 +25°C° 0 mm 4 mps 764 mmHg 49%
    09:00 +26°C° 0 mm 4 mps 765 mmHg 47%
    10:00 +27°C° 0 mm 4 mps 764 mmHg 45%
    11:00 +28°C° 0 mm 5 mps 764 mmHg 43%
    12:00 +28°C° 0 mm 5 mps 763 mmHg 41%
    13:00 +28°C° 0 mm 5 mps 763 mmHg 42%
    14:00 +29°C° 0 mm 5 mps 762 mmHg 43%
    15:00 +29°C° 0 mm 5 mps 762 mmHg 43%
    16:00 +28°C° 0 mm 5 mps 762 mmHg 47%
    17:00 +28°C° 0 mm 5 mps 762 mmHg 51%
    18:00 +27°C° 0 mm 5 mps 763 mmHg 55%
    19:00 +27°C° 0 mm 5 mps 762 mmHg 55%
    20:00 +27°C° 0 mm 4 mps 762 mmHg 54%
    21:00 +27°C° 0 mm 4 mps 762 mmHg 53%
    22:00 +27°C° 0 mm 4 mps 762 mmHg 56%
    23:00 +26°C° 0 mm 5 mps 762 mmHg 58%
    Show more